Regional Weather Roundup
Issued by NWS

Home | Current Version | Previous Version | Text Only | Print | Product List | Glossary Off
Versions: 1 2 3 4 5 6 7 8 9 10 11 12 13 14 15 16 17 18 19 20 21 22 23 24 25 26 27 28 29 30 31 32 33 34 35 36 37 38 39 40 41 42 43 44 45 46 47 48 49 50

000
ASUS43 KIND 171900
RWRIN

WEATHER ROUNDUP FOR INDIANA
NATIONAL WEATHER SERVICE INDIANAPOLIS IN
300 PM EDT TUE OCT 17 2017

NOTE: "FAIR" INDICATES FEW OR NO CLOUDS BELOW 12,000 FEET WITH NO
SIGNIFICANT WEATHER AND/OR OBSTRUCTIONS TO VISIBILITY.

* - STATION DOES NOT REPORT WEATHER SUCH AS PRECIPITATION OR FOG.

+ - STATION NOT QUALITY CONTROLLED BY THE NATIONAL WEATHER SERVICE.
    USE DATA WITH CAUTION...ESPECIALLY DEWPOINT AND RELATIVE
    HUMIDITY OBSERVATIONS.

INZ001>003-010>013-019-020-172000-
NORTHWEST INDIANA

CITY           SKY/WX    TMP DP  RH WIND       PRES   REMARKS
GARY /AIRPORT/ MOSUNNY   70  36  28 SW15G28   30.18F
MICHIGAN CITY+ SUNNY     68  43  40 SW14G23   30.19F
MONTICELLO +   SUNNY     67  38  34 SW14G22   30.23F
RENSSELAER +   SUNNY     68  23  18 SW13G23   30.21F

$$

LMZ046-743>745-172000-
SOUTHERN LAKE MICHIGAN

STATION/POSITION TIME  TEMP    WIND        PRES    WAVE
                       AIR SEA DIR/SP/G            HT
                 (UTC) (F)     (DEG/KT/KT) (MB)    (FT)
BURNS HARBOR     1840   67     240/ 19/ 23 1022.4F
MICHIGAN CITY    1830   65     210/ 15/ 17   N/A
5NW MICH CITY    1840   63 57  230/ 14/ 19   N/A     3

$$

INZ004-005-014>016-021>024-172000-
NORTH CENTRAL INDIANA

CITY           SKY/WX    TMP DP  RH WIND       PRES   REMARKS
ELKHART        SUNNY     68  41  37 SW14G23   30.20F
GOSHEN         SUNNY     67  40  37 SW17G28   30.20F
SOUTH BEND     SUNNY     67  41  38 SW18G25   30.19F

$$

INZ006>009-017-018-025>027-172000-
NORTHEAST INDIANA

CITY           SKY/WX    TMP DP  RH WIND       PRES   REMARKS
FORT WAYNE     MOSUNNY   68  37  32 W12       30.23F
KENDALLVILLE + SUNNY     67  40  38 SW14G24   30.22F

$$

INZ028-029-035-036-043>045-051>053-172000-
WEST CENTRAL INDIANA

CITY           SKY/WX    TMP DP  RH WIND       PRES   REMARKS
GREENCASTLE +  SUNNY     64  39  39 SW5       30.28F
LAFAYETTE      NOT AVBL
TERRE HAUTE    SUNNY     66  39  37 SW12      30.27F

$$

INZ030>032-037>040-046>048-054>057-064-065-172000-
CENTRAL INDIANA

CITY           SKY/WX    TMP DP  RH WIND       PRES   REMARKS
COLUMBUS       SUNNY     64  30  27 SW9       30.29F
INDIANAPOLIS   MOSUNNY   66  40  38 SW12      30.24F
-EAGLE CREEK   SUNNY     66  39  37 SW9       30.26F
KOKOMO +       SUNNY     67  40  37 SW17      30.25F
MT COMFORT *+  SUNNY     66  45  45 SW10G18   30.27F
SHELBYVILLE    SUNNY     67  37  33 S10       30.27F

$$

INZ033-034-041-042-049-050-058-059-172000-
EAST CENTRAL INDIANA

CITY           SKY/WX    TMP DP  RH WIND       PRES   REMARKS
MUNCIE         SUNNY     67  37  33 SW9       30.25F
RICHMOND +     FLURRIES  63  36  36 SW9G17    30.28F

$$

INZ060-061-067>069-081>083-085>088-172000-
SOUTHWEST INDIANA

CITY           SKY/WX    TMP DP  RH WIND       PRES   REMARKS
EVANSVILLE     CLOUDY    65  39  38 VRB6      30.30F
HUNTINGBURG +  SUNNY     65  41  41 S7        30.30F

$$

INZ062-063-066-070>080-084-089>092-172000-
SOUTH CENTRAL AND SOUTHEAST INDIANA

CITY           SKY/WX    TMP DP  RH WIND       PRES   REMARKS
BLOOMINGTON    SUNNY     66  37  34 SW8       30.28F
MADISON *+     SUNNY     66  34  30 SW7       30.31F
SEYMOUR +      SUNNY     68  39  34 SW6       30.28F

$$





USA.gov is the U.S. government's official web portal to all federal, state and local government web resources and services.